Simultaneous Nadir Overpasses (SNOs) Predictions

Prediction of SNOs between GOES-16 and LANDSAT-8 Satellite Orbit:

Table of predicted SNOs for the next 14.0 days since TLE Epoch: 3/4/2023
Index Date Time (GOES-16) GOES-16 Lat,Lon LANDSAT-8 Lat,Lon Distance(km) Time Diff (sec)
1 03/06/2023 02:57:26 -0.05, -75.20 0.68, -71.70 396.99 80
2 03/06/2023 15:21:20 0.05, -75.21 0.43, -76.86 187.76 80
3 03/08/2023 15:06:27 0.05, -75.23 -0.21, -73.90 150.90 80
4 03/09/2023 03:30:31 -0.06, -75.23 -0.87, -79.09 439.60 80
5 03/10/2023 14:54:14 0.05, -75.25 -0.88, -70.94 490.14 80
6 03/11/2023 03:18:17 -0.05, -75.25 -0.26, -76.13 100.28 80
7 03/13/2023 03:03:23 -0.05, -75.27 0.39, -73.17 239.31 80
8 03/13/2023 15:24:38 0.05, -75.29 0.70, -78.32 345.28 80
9 03/15/2023 15:15:03 0.05, -75.31 0.08, -75.35 6.00 80
10 03/17/2023 15:02:48 0.04, -75.34 -0.57, -72.39 334.84 80
11 03/18/2023 03:24:11 -0.04, -75.34 -0.54, -77.58 255.00 80
